DateTimeUTC,F1_A11,F1_S11,BsB_S11,BsG_S11,BsR_S11,BbsB_S11,BbsG_S11,BbsR_S11,BaB_A11,BaG_A11,BaR_A11,Tu_S11,T_S11,Uu_S11,U_S11,P_S11,T1_A11
2021-08-06T16:00:00Z,00000200,20000000,,,,,,,0000.13,0000.42,0000.60,19.5,25.8,03.5,02.4,0666.8,31.0
2021-08-06T16:01:00Z,00000200,20000000,,,,,,,-000.08,-000.31,-000.50,19.5,25.8,03.5,02.4,0666.8,31.0
2021-08-06T16:02:00Z,00000200,20000000,,,,,,,0000.22,0000.18,0000.37,19.5,25.8,03.5,02.4,0666.8,31.0
2021-08-06T16:03:00Z,00000200,60000000,,,,,,,0000.72,0000.99,0000.42,19.5,25.8,03.5,02.4,0666.8,31.0
2021-08-06T16:04:00Z,00000200,40000000,0006.61,0004.18,0002.98,0001.36,0000.33,0000.26,0002.04,0001.63,0001.34,19.6,25.7,03.6,02.5,0667.7,31.1
2021-08-06T16:05:00Z,00000200,00000000,0005.98,0004.49,0003.15,0001.58,0000.52,0000.58,0001.71,0001.52,0001.60,19.7,25.7,03.9,02.7,0667.8,31.1
2021-08-06T16:06:00Z,00000200,00000000,0006.81,0004.45,0002.88,0001.32,0000.17,0000.61,0001.12,0001.09,0000.74,19.7,25.7,03.9,02.7,0667.8,31.0
2021-08-06T16:07:00Z,00000200,00000000,0006.20,0004.55,0002.60,0001.03,0000.36,0000.47,0001.74,0001.81,0001.06,19.7,25.7,03.8,02.7,0667.8,31.0
2021-08-06T16:08:00Z,00000200,00000000,0006.15,0004.89,0002.89,0001.45,0000.16,0000.71,0001.48,0001.08,0001.46,19.7,25.7,03.9,02.7,0667.8,31.0
2021-08-06T16:09:00Z,00000200,00000000,0006.16,0004.66,0002.94,0001.36,0000.35,0000.37,0001.43,0001.46,0000.94,19.7,25.7,03.9,02.7,0667.8,31.1
2021-08-06T16:10:00Z,00000200,00000000,0007.37,0004.39,0002.83,0001.17,0000.63,0000.69,0001.49,0001.08,0000.55,19.7,25.7,04.0,02.8,0667.8,31.1
2021-08-06T16:11:00Z,00000200,00000000,0006.52,0004.24,0002.90,0000.74,0000.40,0000.62,0001.25,0000.98,0001.45,19.7,25.7,03.8,02.6,0667.8,31.0
2021-08-06T16:12:00Z,00000200,00000000,0006.36,0004.60,0002.72,0000.98,0000.57,0000.53,0001.24,0001.59,0000.81,19.7,25.7,03.9,02.7,0667.8,31.0
2021-08-06T16:13:00Z,00000200,00000000,0006.52,0004.87,0002.91,0000.68,0000.55,0000.57,0001.58,0000.87,0000.68,19.7,25.7,03.7,02.6,0667.8,31.1
2021-08-06T16:14:00Z,00000200,00000000,0006.44,0004.46,0002.77,0000.94,0000.40,0000.19,0001.35,0001.70,0001.19,19.7,25.7,03.9,02.7,0667.8,31.0
2021-08-06T16:15:00Z,00000200,00000000,0005.99,0004.50,0002.71,0001.10,0000.55,0000.53,0000.94,0000.96,0000.45,19.7,25.7,03.8,02.7,0667.8,31.0
2021-08-06T16:16:00Z,00000200,00000000,0006.48,0004.43,0002.66,0001.81,0000.32,0000.53,0002.08,0001.69,0001.53,19.7,25.7,03.9,02.7,0667.8,31.1
2021-08-06T16:17:00Z,00000200,00000000,0006.50,0004.30,0002.99,0000.97,0000.31,0000.73,0001.24,0001.02,0001.04,19.7,25.7,03.9,02.7,0667.8,31.0
2021-08-06T16:18:00Z,00000200,00000000,0006.46,0004.43,0003.08,0000.61,0000.35,0000.42,0001.14,0001.43,0000.64,19.7,25.7,03.8,02.7,0667.7,31.1
2021-08-06T16:19:00Z,00000200,00000000,0006.66,0004.54,0002.93,0001.02,0000.21,0000.36,0001.47,0001.18,0001.14,19.8,25.7,03.7,02.6,0667.7,31.1
2021-08-06T16:20:00Z,00000200,00000000,0006.04,0004.59,0003.05,0001.14,0000.54,0000.61,0001.56,0001.33,0000.81,19.8,25.7,03.8,02.7,0667.7,31.0
2021-08-06T16:21:00Z,00000200,00000000,0006.10,0004.74,0002.51,0000.81,0000.67,0000.29,0001.31,0000.95,0000.69,19.8,25.7,03.7,02.6,0667.7,31.1
2021-08-06T16:22:00Z,00000200,00000000,0006.74,0004.38,0002.89,0001.53,0000.59,0000.84,0001.28,0001.36,0001.18,19.8,25.7,03.7,02.6,0667.7,31.1
2021-08-06T16:23:00Z,00000200,00000000,0006.35,0004.52,0002.68,0000.80,0000.33,0000.57,0001.74,0001.90,0001.42,19.8,25.7,03.7,02.6,0667.7,31.1
2021-08-06T16:24:00Z,00000200,00000000,0007.13,0004.76,0002.62,0001.02,0000.19,0000.59,0000.79,0000.43,0000.39,19.8,25.7,03.7,02.6,0667.7,31.1
2021-08-06T16:25:00Z,00000200,00000000,0006.76,0004.58,0002.70,0000.78,0000.47,0000.37,0001.59,0001.85,0001.05,19.8,25.7,03.6,02.5,0667.7,31.1
2021-08-06T16:26:00Z,00000200,00000000,0006.56,0004.49,0002.73,0001.35,0000.58,0000.62,0002.13,0001.78,0001.70,19.8,25.7,03.9,02.7,0667.7,31.1
2021-08-06T16:27:00Z,00000200,00000000,0006.60,0004.47,0002.91,0001.11,0000.46,0000.64,0001.31,0001.16,0000.81,19.8,25.7,03.9,02.7,0667.7,31.1
2021-08-06T16:28:00Z,00000200,00000000,0007.25,0004.47,0002.83,0001.01,0000.80,0000.89,0000.82,0000.84,0000.72,19.8,25.7,03.7,02.6,0667.7,31.1
2021-08-06T16:29:00Z,00000200,00000000,0006.07,0004.34,0002.66,0001.06,0000.42,0000.61,0001.68,0000.93,0001.01,19.8,25.7,03.7,02.6,0667.7,31.1
2021-08-06T16:30:00Z,00000200,00000000,0006.50,0004.67,0003.08,0000.81,0000.55,0000.57,0001.55,0001.85,0001.36,19.8,25.7,03.7,02.6,0667.7,31.1
2021-08-06T16:31:00Z,00000200,00000000,0006.77,0004.72,0002.66,0001.53,0000.30,0000.14,0001.44,0001.06,0000.74,19.9,25.7,03.7,02.6,0667.7,31.1
2021-08-06T16:32:00Z,00000200,00000000,0006.85,0004.51,0002.91,0001.37,0000.47,0000.72,0001.39,0001.47,0001.07,19.9,25.7,03.7,02.6,0667.7,31.1
2021-08-06T16:33:00Z,00000200,00000000,0006.25,0004.67,0002.79,0000.63,0000.59,0000.98,0001.94,0001.56,0001.36,19.9,25.7,03.9,02.7,0667.7,31.1
2021-08-06T16:34:00Z,00000200,00000000,0006.02,0004.28,0002.63,0000.64,0000.46,0000.61,0001.02,0001.53,0000.88,19.9,25.7,03.8,02.7,0667.7,31.1
2021-08-06T16:35:00Z,00000200,00000000,0006.07,0005.13,0002.75,0000.57,0000.44,0000.36,0001.70,0000.82,0000.85,19.9,25.8,03.7,02.6,0667.7,31.1
2021-08-06T16:36:00Z,00000200,00000000,0005.99,0004.35,0002.84,0000.49,0000.32,0000.66,0000.86,0001.49,0000.69,19.9,25.8,03.6,02.6,0667.6,31.1
2021-08-06T16:37:00Z,00000200,00000000,0006.56,0004.79,0003.03,0002.00,0000.74,0000.20,0001.46,0000.43,0000.71,19.9,25.8,03.6,02.5,0667.6,31.1
2021-08-06T16:38:00Z,00000200,00000000,0005.54,0005.03,0003.06,0000.30,0000.27,0000.38,0001.13,0002.01,0001.35,19.9,25.8,03.5,02.5,0667.6,31.1
2021-08-06T16:39:00Z,00000200,00000000,0006.79,0004.67,0002.99,0001.05,0000.41,0000.87,0001.89,0001.14,0000.98,19.9,25.8,03.5,02.4,0667.6,31.1
2021-08-06T16:40:00Z,00000200,00000000,0005.91,0004.53,0002.76,0001.32,0000.41,0000.33,0001.37,0001.52,0000.98,19.9,25.8,03.5,02.4,0667.6,31.1
2021-08-06T16:41:00Z,00000200,00000000,0007.08,0004.84,0002.96,0001.14,0000.50,0000.42,0001.30,0001.06,0001.08,19.9,25.8,03.6,02.5,0667.6,31.1
2021-08-06T16:42:00Z,00000200,00000000,0006.60,0004.59,0002.80,0001.00,0000.47,0000.52,0001.23,0000.74,0000.58,19.9,25.8,03.7,02.6,0667.5,31.1
2021-08-06T16:43:00Z,00000200,00000000,0006.33,0004.48,0002.74,0001.70,0000.58,0000.47,0001.37,0001.24,0000.82,19.9,25.8,03.5,02.4,0667.5,31.1
2021-08-06T16:44:00Z,00000200,00000000,0006.13,0004.66,0003.08,0001.95,0000.52,0000.53,0001.37,0001.62,0000.96,19.9,25.8,03.3,02.3,0667.6,31.1
2021-08-06T16:45:00Z,00000200,00000000,0006.55,0004.87,0002.82,0001.09,0000.58,0000.64,0001.32,0001.31,0000.99,19.9,25.8,03.4,02.4,0667.6,31.1
2021-08-06T16:46:00Z,00000200,00000000,0006.44,0004.49,0002.90,0001.27,0000.35,0000.68,0001.27,0000.83,0000.96,20.0,25.8,03.5,02.4,0667.6,31.1
2021-08-06T16:47:00Z,00000200,00000000,0006.70,0004.45,0002.76,0001.07,0000.41,0000.96,0001.45,0001.41,0000.86,19.9,25.8,03.4,02.4,0667.6,31.1
2021-08-06T16:48:00Z,00000200,00000000,0006.09,0004.52,0002.63,0001.21,0000.43,0000.38,0001.42,0001.21,0000.79,20.0,25.8,03.3,02.3,0667.6,31.1
2021-08-06T16:49:00Z,00000200,00000000,0007.01,0004.38,0002.65,0001.06,0000.58,0000.33,0001.33,0001.31,0001.33,20.0,25.8,03.4,02.4,0667.6,31.1
2021-08-06T16:50:00Z,00000200,00000000,0006.32,0004.67,0003.19,0001.10,0000.50,0000.62,0001.57,0001.33,0000.95,20.0,25.8,03.4,02.4,0667.6,31.1
2021-08-06T16:51:00Z,00000200,00000000,0006.85,0004.55,0002.97,0000.82,0000.42,0000.74,0001.20,0001.13,0001.24,20.0,25.8,03.4,02.4,0667.6,31.1
2021-08-06T16:52:00Z,00000200,00000000,0006.63,0004.61,0002.80,0001.38,0000.38,0000.67,0001.58,0001.53,0000.68,20.0,25.8,03.4,02.4,0667.6,31.1
2021-08-06T16:53:00Z,00000200,00000000,0006.50,0004.40,0002.36,0000.61,0000.23,0000.52,0002.45,0002.34,0002.09,20.0,25.8,03.4,02.4,0667.6,31.1
2021-08-06T16:54:00Z,00000200,00000000,0006.24,0004.59,0002.72,0001.10,0000.51,0000.66,0000.31,0000.60,0000.37,20.0,25.8,03.7,02.6,0667.6,31.1
2021-08-06T16:55:00Z,00000200,00000000,0005.85,0004.31,0002.96,0000.87,0000.55,0000.77,0002.37,0002.29,0001.72,20.0,25.8,03.7,02.6,0667.6,31.1
2021-08-06T16:56:00Z,00000200,00000000,0005.90,0004.07,0002.65,0001.01,0000.26,0000.36,0000.72,0000.10,0000.07,20.0,25.8,03.8,02.6,0667.6,31.1
2021-08-06T16:57:00Z,00000200,40000000,,,,,,,0000.04,0000.08,0000.10,20.1,25.8,03.1,02.2,0667.5,31.1
2021-08-06T16:58:00Z,00000200,60000000,,,,,,,0000.31,0000.35,0000.33,19.9,25.9,03.2,02.2,0666.6,31.1
2021-08-06T16:59:00Z,00000200,20000000,,,,,,,0000.58,0000.74,0000.65,19.9,26.0,03.2,02.2,0666.6,31.1
